Bozeman, MT

8:43 AM MDT on May 25, 2017 (GMT -0600)
Gallatin

Weather History for KBZN - January, 2013

Change the Weather History Date:

Thursday, January 31, 2013

  Actual Average Record
Temperature  
Mean Temperature 37 °F 25 °F  
Max Temperature 41 °F 37 °F 58 °F (1953)
Min Temperature 33 °F 13 °F -35 °F (1937)
Degree Days  
Heating Degree Days 28 40  
Month to date heating degree days 1408 1287  
Since 1 July heating degree days 4635 4522  
Cooling Degree Days 0 0  
Month to date cooling degree days 0 0  
Year to date cooling degree days 0 0  
Moisture  
Dew Point 26 °F    
Average Humidity 65    
Maximum Humidity 75    
Minimum Humidity 54    
Precipitation  
Precipitation T in 0.01 in 0.16 in (1961)
Month to date precipitation 0.24 0.48  
Year to date precipitation 0.24 0.48  
Snow  
Snow 0.00 in 0.10 in 2.00 in (1966)
Month to date snowfall 2.3 4.0  
Since 1 July snowfall 16.9 17.4  
Snow Depth 6.00 in    
Sea Level Pressure  
Sea Level Pressure 30.14 in    
Wind  
Wind Speed 4 mph (South)    
Max Wind Speed 21 mph    
Max Gust Speed 24 mph    
Visibility 10 miles    
Events Snow    
T = Trace of Precipitation, MM = Missing Value Source: NWS Daily Summary

Daily Weather History Graph

Daily Weather History Graph

Search for Another Location

Airport or City:

Trip Planner

Search our weather history database for the weather conditions in past years. The results will help you decide how hot, cold, wet, or windy it might be!

Date:

Astronomy

Jan. 31, 2013 Rise Set
Actual Time 7:47 AM MST 5:29 PM MST
Civil Twilight 7:15 AM MST 6:01 PM MST
Nautical Twilight 6:39 AM MST 6:37 PM MST
Astronomical Twilight 6:04 AM MST 7:12 PM MST
Moon 10:55 PM MST (1/31) 9:30 AM MST (1/31)
Length of Visible Light 10h 46m
Length of Day
9h 42m
Waning Gibbous, 79% of the Moon is Illuminated
Jan 31
Waning Gibbous
Feb 3
Last Quarter
Feb 10
New
Feb 17
First Quarter
Feb 25
Full

Hourly Weather History & Observations

Time (MST) Temp. Windchill Dew Point Humidity Pressure Visibility Wind Dir Wind Speed Gust Speed Precip Events Conditions
12:56 AM 35.1 °F 28.6 °F 24.1 °F 64% 30.09 in 10.0 mi WSW 8.1 mph - N/A   Overcast
1:56 AM 35.1 °F 28.6 °F 24.1 °F 64% 30.09 in 10.0 mi SSW 8.1 mph - N/A   Overcast
2:56 AM 35.1 °F 32.2 °F 24.1 °F 64% 30.10 in 10.0 mi WNW 3.5 mph - N/A   Overcast
3:56 AM 34.0 °F - 24.1 °F 67% 30.12 in 10.0 mi Calm Calm - N/A   Overcast
4:56 AM 34.0 °F - 24.1 °F 67% 30.13 in 10.0 mi Calm Calm - N/A   Overcast
5:56 AM 35.1 °F 30.1 °F 23.0 °F 61% 30.14 in 10.0 mi SW 5.8 mph - N/A   Overcast
6:56 AM 34.0 °F 28.8 °F 23.0 °F 64% 30.14 in 10.0 mi West 5.8 mph - N/A   Overcast
7:56 AM 36.0 °F 29.0 °F 23.0 °F 59% 30.15 in 10.0 mi West 9.2 mph - N/A   Overcast
8:56 AM 34.0 °F 28.0 °F 25.0 °F 70% 30.18 in 10.0 mi WNW 6.9 mph - N/A   Overcast
9:56 AM 33.1 °F 26.9 °F 25.0 °F 72% 30.19 in 10.0 mi East 6.9 mph - 0.00 in Snow Light Snow
10:56 AM 34.0 °F 29.8 °F 27.0 °F 75% 30.19 in 9.0 mi East 4.6 mph - 0.00 in   Overcast
11:56 AM 36.0 °F 33.3 °F 27.0 °F 70% 30.17 in 10.0 mi East 3.5 mph - 0.00 in   Overcast
12:56 PM 35.1 °F 32.2 °F 28.0 °F 76% 30.17 in 10.0 mi SE 3.5 mph - N/A   Overcast
1:56 PM 37.0 °F - 26.1 °F 65% 30.14 in 10.0 mi Calm Calm - N/A   Overcast
2:56 PM 37.9 °F - 27.0 °F 65% 30.14 in 10.0 mi Calm Calm - N/A   Overcast
3:56 PM 39.9 °F - 25.0 °F 55% 30.14 in 10.0 mi Calm Calm - N/A   Overcast
4:56 PM 39.9 °F 34.5 °F 26.1 °F 58% 30.13 in 10.0 mi WSW 8.1 mph - N/A   Overcast
5:56 PM 39.9 °F 36.7 °F 26.1 °F 58% 30.13 in 10.0 mi ENE 4.6 mph - N/A   Overcast
6:56 PM 37.0 °F 32.4 °F 28.9 °F 73% 30.15 in 10.0 mi NE 5.8 mph - N/A   Overcast
7:56 PM 37.9 °F - 28.0 °F 68% 30.14 in 10.0 mi Calm Calm - N/A   Overcast
8:56 PM 37.9 °F - 27.0 °F 65% 30.14 in 10.0 mi Calm Calm - N/A   Overcast
9:56 PM 37.9 °F - 26.1 °F 62% 30.14 in 10.0 mi Calm Calm - N/A   Overcast
10:56 PM 34.0 °F 31.0 °F 27.0 °F 75% 30.14 in 10.0 mi SE 3.5 mph - N/A   Overcast
11:56 PM 37.0 °F 34.5 °F 26.1 °F 65% 30.11 in 10.0 mi ESE 3.5 mph - N/A   Overcast